sat.trackr.live / text

‹ back to catalog

TEVEL2-2

NORAD 63219 · 2025-052K

PAYLOAD ACTIVE UNKNOWN

§ Identity

Operator
Country
ISRA
Launch date
2025-03-15
Launch site
AFWTR
Launch vehicle
Mass (kg)
RCS (m²)

Purposes: comms

External: N2YO · Heavens-Above · Gunter

§ Orbital elements

Epoch: 2026-09-19T03:49:58.505952Z

Period
93.70 min
Inclination
97.3728°
Eccentricity
0.0004214
Mean motion
15.36780306 rev/d
Perigee alt
452.8 km
Apogee alt
458.5 km
Semi-major
6,833.8 km
B*
3.6394e-4
RAAN
158.2570°
Arg perigee
122.5540°
Mean anomaly
237.6112°
Rev number
8,451

§ Raw data

TEVEL2-21 63219U 25052K   26262.15970493  .00013009  00000+0  36394-3 0  99912 63219  97.3728 158.2570 0004214 122.5540 237.6112 15.36780306 84516

JSON: /api/v1/satellites/63219 · /tle

For live sub-satellite position, see the globe view (requires WebGL).

§ Visibility from observer

Set your observer location to see the next 7 days of passes ≥ 10°. The values pass through the URL so the page stays shareable.

No JS? Fill the form by hand. The geolocation button needs JavaScript.

§ Radio — SatNOGS DB

ModeDescriptionDownlinkUplink
BPSK Mode U - BPSK9k6 G3RUH 436.400 MHz
FM Mode V/U - FM Transponder - Beacon 436.400 MHz 145.970 MHz

2 transmitters · refreshed weekly from db.satnogs.org